ASA67 PAPG-PAJN

Flight info

Callsign ASA67
Flight time 0h 34m
Altitude 20000
Route DCT SSR DCT
Aircraft B737/M-SDE2E3FGHIRWXY/LB1

Departure

Time 2026-05-03 20:31
Airport Petersburg James A Johnson Airport (PAPG)

Arrival

Time 2026-05-03 21:06
Airport Juneau International Airport (PAJN)
Time Latitude Longitude Altitude Speed Heading
2026-05-03 20:20 56.80570 -132.93416 79 ft 0 kts 250°
2026-05-03 20:27 56.80562 -132.93437 79 ft 7 kts 223°
2026-05-03 20:28 56.80492 -132.93405 80 ft 11 kts 154°
2026-05-03 20:28 56.80468 -132.93391 81 ft 0 kts 162°
2026-05-03 20:31 56.80425 -132.93382 82 ft 19 kts 200°
2026-05-03 20:31 56.80259 -132.94080 75 ft 103 kts 250°
2026-05-03 20:31 56.79883 -132.95593 326 ft 141 kts 219°
2026-05-03 20:31 56.79115 -132.95579 842 ft 147 kts 106°
2026-05-03 20:32 56.79596 -132.93506 703 ft 216 kts 56°
2026-05-03 20:32 56.80687 -132.90994 546 ft 291 kts 52°
2026-05-03 20:32 56.81856 -132.91588 867 ft 303 kts 242°
2026-05-03 20:32 56.80923 -132.94334 1342 ft 290 kts 300°
2026-05-03 20:33 56.80073 -132.95177 816 ft 310 kts 91°
2026-05-03 20:33 56.80437 -132.91490 2612 ft 292 kts 76°
2026-05-03 20:33 56.80878 -132.88325 4772 ft 263 kts 68°
2026-05-03 20:33 56.81920 -132.85698 4625 ft 305 kts 17°
2026-05-03 20:34 56.81295 -132.88664 249 ft 392 kts 241°
2026-05-03 20:34 56.80487 -132.93024 126 ft 338 kts 248°
2026-05-03 20:34 56.79796 -132.96175 1327 ft 190 kts 233°
2026-05-03 20:34 56.79453 -132.96683 2305 ft 112 kts 213°
2026-05-03 20:35 56.78436 -132.97499 792 ft 209 kts 193°
2026-05-03 20:35 56.77798 -132.96075 1224 ft 214 kts 49°
2026-05-03 20:35 56.78915 -132.93980 883 ft 249 kts 49°
2026-05-03 20:35 56.79985 -132.91351 511 ft 264 kts 53°
2026-05-03 20:36 56.81212 -132.89842 948 ft 187 kts 326°
2026-05-03 20:36 56.81483 -132.90707 -2 ft 7 kts 279°
2026-05-03 20:36 56.81486 -132.90758 -3 ft 6 kts 280°
2026-05-03 20:37 56.79869 -132.96069 101 ft 0 kts 71°
2026-05-03 20:39 56.79869 -132.96068 100 ft 1 kts 71°
2026-05-03 20:40 56.79909 -132.95859 95 ft 59 kts 70°
2026-05-03 20:40 56.80165 -132.94554 74 ft 155 kts 71°
2026-05-03 20:40 56.80499 -132.92799 1444 ft 124 kts 66°
2026-05-03 20:40 56.80871 -132.91876 2260 ft 119 kts 27°
2026-05-03 20:41 56.81930 -132.91507 2180 ft 184 kts
2026-05-03 20:41 56.83252 -132.91292 2693 ft 200 kts 356°
2026-05-03 20:41 56.84554 -132.92276 3219 ft 216 kts 317°
2026-05-03 20:41 56.85520 -132.94466 3849 ft 229 kts 309°
2026-05-03 20:42 56.86589 -132.96661 4474 ft 241 kts 317°
2026-05-03 20:42 56.87872 -132.98688 5153 ft 250 kts 322°
2026-05-03 20:42 56.89243 -133.00648 6034 ft 252 kts 322°
2026-05-03 20:42 56.90603 -133.02579 6896 ft 253 kts 322°
2026-05-03 20:43 56.91975 -133.04553 7740 ft 254 kts 321°
2026-05-03 20:43 56.93356 -133.06561 8604 ft 254 kts 320°
2026-05-03 20:43 56.94713 -133.08546 9412 ft 255 kts 320°
2026-05-03 20:43 56.96091 -133.10564 10282 ft 254 kts 319°
2026-05-03 20:44 56.97467 -133.12582 10953 ft 260 kts 319°
2026-05-03 20:44 56.98873 -133.14642 11690 ft 263 kts 319°
2026-05-03 20:44 57.00323 -133.16766 12398 ft 269 kts 318°
2026-05-03 20:44 57.01766 -133.18881 13167 ft 271 kts 318°
2026-05-03 20:45 57.03252 -133.21069 13871 ft 276 kts 317°
2026-05-03 20:45 57.04748 -133.23277 14601 ft 280 kts 317°
2026-05-03 20:45 57.06269 -133.25525 15404 ft 282 kts 317°
2026-05-03 20:45 57.07781 -133.27762 16158 ft 284 kts 317°
2026-05-03 20:46 57.09328 -133.30057 16890 ft 287 kts 317°
2026-05-03 20:46 57.10871 -133.32346 17581 ft 290 kts 317°
2026-05-03 20:46 57.12452 -133.34688 18311 ft 292 kts 317°
2026-05-03 20:46 57.14010 -133.36999 18979 ft 295 kts 317°
2026-05-03 20:47 57.15615 -133.39388 19594 ft 300 kts 317°
2026-05-03 20:47 57.17262 -133.41847 19968 ft 313 kts 317°
2026-05-03 20:47 57.18990 -133.44432 20236 ft 326 kts 317°
2026-05-03 20:47 57.20796 -133.47136 20265 ft 344 kts 317°
2026-05-03 20:48 57.22695 -133.49982 20271 ft 361 kts 317°
2026-05-03 20:48 57.24707 -133.53001 20268 ft 388 kts 318°
2026-05-03 20:48 57.26872 -133.56256 20269 ft 413 kts 318°
2026-05-03 20:48 57.29134 -133.59662 20279 ft 437 kts 318°
2026-05-03 20:49 57.31568 -133.63329 20275 ft 460 kts 318°
2026-05-03 20:49 57.34098 -133.67146 20284 ft 482 kts 318°
2026-05-03 20:49 57.36766 -133.71176 20291 ft 500 kts 318°
2026-05-03 20:49 57.39447 -133.75223 20283 ft 505 kts 318°
2026-05-03 20:50 57.42150 -133.79306 20305 ft 506 kts 318°
2026-05-03 20:50 57.44879 -133.83434 20293 ft 506 kts 318°
2026-05-03 20:50 57.47620 -133.87589 20297 ft 505 kts 318°
2026-05-03 20:50 57.50323 -133.91698 20299 ft 506 kts 318°
2026-05-03 20:51 57.53037 -133.95836 20299 ft 506 kts 317°
2026-05-03 20:51 57.55748 -133.99980 20224 ft 508 kts 318°
2026-05-03 20:51 57.58481 -134.04169 19794 ft 512 kts 318°
2026-05-03 20:51 57.61215 -134.08369 19385 ft 512 kts 318°
2026-05-03 20:52 57.63956 -134.12587 19225 ft 511 kts 318°
2026-05-03 20:52 57.66715 -134.16846 19087 ft 513 kts 317°
2026-05-03 20:52 57.69431 -134.21046 18868 ft 513 kts 317°
2026-05-03 20:52 57.72189 -134.25319 18619 ft 514 kts 317°
2026-05-03 20:53 57.74926 -134.29572 18365 ft 514 kts 317°
2026-05-03 20:53 57.77663 -134.33832 17872 ft 521 kts 317°
2026-05-03 20:53 57.80434 -134.38155 16905 ft 526 kts 317°
2026-05-03 20:53 57.83276 -134.42598 15850 ft 528 kts 317°
2026-05-03 20:54 57.85125 -134.45496 15204 ft 529 kts 317°
2026-05-03 20:54 57.91692 -134.55832 12896 ft 534 kts 317°
2026-05-03 20:54 57.94525 -134.60313 11764 ft 527 kts 318°
2026-05-03 20:55 57.97216 -134.64568 10747 ft 492 kts 317°
2026-05-03 20:55 57.99716 -134.68509 10185 ft 447 kts 317°
2026-05-03 20:55 58.01989 -134.72072 10081 ft 400 kts 317°
2026-05-03 20:55 58.04017 -134.75259 10020 ft 361 kts 316°
2026-05-03 20:56 58.05852 -134.78159 9888 ft 331 kts 316°
2026-05-03 20:56 58.07564 -134.80894 9500 ft 321 kts 315°
2026-05-03 20:56 58.09233 -134.83577 9064 ft 312 kts 316°
2026-05-03 20:56 58.10866 -134.86209 8667 ft 304 kts 316°
2026-05-03 20:57 58.12454 -134.88765 8279 ft 296 kts 316°
2026-05-03 20:57 58.13988 -134.91228 7908 ft 289 kts 316°
2026-05-03 20:57 58.15517 -134.93683 7528 ft 283 kts 316°
2026-05-03 20:57 58.16987 -134.96048 7268 ft 273 kts 316°
2026-05-03 20:58 58.18393 -134.98309 7178 ft 258 kts 315°
2026-05-03 20:58 58.19727 -135.00453 7111 ft 244 kts 316°
2026-05-03 20:58 58.20987 -135.02470 7024 ft 229 kts 316°
2026-05-03 20:58 58.22268 -135.04111 6942 ft 218 kts 330°
2026-05-03 20:59 58.23746 -135.04568 6755 ft 223 kts
2026-05-03 20:59 58.25259 -135.03702 6515 ft 228 kts 15°
2026-05-03 20:59 58.26734 -135.02635 6271 ft 226 kts 14°
2026-05-03 20:59 58.28196 -135.01656 6029 ft 225 kts 13°
2026-05-03 21:00 58.29702 -135.00707 5592 ft 232 kts 13°
2026-05-03 21:00 58.30219 -135.00383 5425 ft 234 kts 13°
2026-05-03 21:00 58.32312 -134.99060 4712 ft 245 kts 16°
2026-05-03 21:00 58.34519 -134.97658 3844 ft 259 kts 17°
2026-05-03 21:01 58.36265 -134.96553 3161 ft 267 kts 18°
2026-05-03 21:01 58.37956 -134.95195 2728 ft 264 kts 30°
2026-05-03 21:01 58.39274 -134.92879 2290 ft 259 kts 59°
2026-05-03 21:01 58.39734 -134.89673 1857 ft 253 kts 90°
2026-05-03 21:02 58.39425 -134.86446 1486 ft 247 kts 106°
2026-05-03 21:02 58.38973 -134.83412 1528 ft 225 kts 105°
2026-05-03 21:02 58.38615 -134.80734 1681 ft 187 kts 104°
2026-05-03 21:02 58.38336 -134.78583 1808 ft 151 kts 105°
2026-05-03 21:03 58.38095 -134.76765 1898 ft 136 kts 107°
2026-05-03 21:03 58.37856 -134.75034 1898 ft 135 kts 107°
2026-05-03 21:03 58.37615 -134.73308 1895 ft 133 kts 107°
2026-05-03 21:03 58.37382 -134.71603 1892 ft 134 kts 106°
2026-05-03 21:04 58.37147 -134.69885 1887 ft 132 kts 107°
2026-05-03 21:04 58.36907 -134.68175 1816 ft 136 kts 106°
2026-05-03 21:04 58.36674 -134.66310 1330 ft 153 kts 101°
2026-05-03 21:04 58.36452 -134.64328 907 ft 151 kts 105°
2026-05-03 21:05 58.36177 -134.62418 464 ft 151 kts 105°
2026-05-03 21:05 58.35904 -134.60538 147 ft 141 kts 105°
2026-05-03 21:05 58.35669 -134.58855 -3 ft 123 kts 104°
2026-05-03 21:05 58.35501 -134.57672 -8 ft 54 kts 107°
2026-05-03 21:06 58.35487 -134.57275 -8 ft 18 kts
2026-05-03 21:06 58.35571 -134.57370 -7 ft 14 kts 284°
2026-05-03 21:06 58.35607 -134.57683 -6 ft 60 kts 279°
2026-05-03 21:06 58.35712 -134.59126 -5 ft 154 kts 282°
2026-05-03 21:07 58.35954 -134.61334 22 ft 6 kts 255°
2026-05-03 21:07 58.35960 -134.61334 2 ft 0 kts 239°
2026-05-03 21:07 58.35774 -134.59618 -7 ft 4 kts 104°
2026-05-03 21:08 58.35668 -134.58701 -5 ft 137 kts 95°
2026-05-03 21:08 58.35451 -134.57646 1755 ft 97 kts 266°
2026-05-03 21:08 58.36040 -134.57222 160 ft 40 kts 46°
2026-05-03 21:08 58.35802 -134.58403 -3 ft 0 kts 46°
2026-05-03 21:09 58.35802 -134.58405 9 ft 0 kts 46°